Location: Home
(42.5358°N, 72.7383°W)
Time: 12:27:26
(UTC-04:00)

Envisat - Visible Passes

Search period start: 17 August 2022 00:00
Search period end: 27 August 2022 00:00
Orbit: 763 x 765 km, 98.2° (Epoch: 16 August)

Date Brightness Start Highest point End Pass type
(mag) Time Alt. Az. Time Alt. Az. Time Alt. Az.
17 Aug 5.3 04:16:42 10° NE 04:20:32 21° E 04:24:20 10° SE visible
18 Aug 3.2 05:17:48 10° NNE 05:22:55 80° ESE 05:27:59 10° S visible
19 Aug 4.5 04:41:11 10° NNE 04:45:52 36° E 04:50:30 10° SSE visible
20 Aug 5.6 04:05:24 10° NE 04:08:36 17° E 04:11:47 10° SE visible
21 Aug 3.5 05:06:02 10° NNE 05:11:04 63° E 05:16:06 10° S visible
22 Aug 4.9 04:29:35 10° NE 04:33:58 28° E 04:38:18 10° SSE visible
23 Aug 5.8 03:54:26 10° ENE 03:56:39 13° E 03:58:50 10° ESE visible
23 Aug 3.0 05:31:07 10° N 05:36:13 76° WNW 05:41:16 10° SSW visible
24 Aug 4.0 04:54:18 10° NNE 04:59:14 49° E 05:04:08 10° S visible
25 Aug 5.3 04:18:06 10° NE 04:22:03 22° E 04:25:58 10° SE visible
26 Aug 3.1 05:19:17 10° NNE 05:24:24 85° ESE 05:29:29 10° SSW visible
